Location: Pedholt
(56.0260°N, 10.2097°E)
Time: 21:14:56
(UTC+00:00)

Tiros 1 - Pass Details

Date: 09 August 2021
Orbit: 630 x 663 km, 48.4° (Epoch: 19 September)

Event Time Altitude Azimuth Distance (km) Brightness Sun altitude
Rises 18:06:42 0° 264° (W) 2,991 12.0 7.2°
Reaches altitude 10° 18:09:17 10° 253° (WSW) 2,074 10.8 6.8°
Maximum altitude 18:13:24 29° 194° (SSW) 1,204 8.6 6.3°
Drops below altitude 10° 18:17:27 10° 135° (SE) 2,054 9.2 5.8°
Sets 18:20:01 0° 124° (SE) 2,957 9.9 5.4°
